LiveATC.Net - Listen to live air traffic control over the Internet!


ICAO: KAHN  IATA: AHN   Airport: Athens/Ben Epps Airport
City: Athens   State/Province: Georgia
Country: United States   Continent: North America
KAHN METAR Weather: KAHN 121351Z 07009KT 2 1/2SM RA BR BKN008 OVC013 17/15 A3012 RMK AO2 CIG 005V011 SLP194 P0015 T01720150
KAHN Flight Activity (FlightAware)
KAHN Airport Info   (iFlightPlanner)
KAHN VFR Sectional Chart   (iFlightPlanner) 
KAHN IFR Low Chart   (iFlightPlanner) 

KAHN Tower
Feed Status: UP   Listeners: 0
Listen in your browser - HTML5 player (in browser, HTML5)
Click here to listen with your own player (launches your MP3 player)
Archive Access: KAHN Tower
FacilityFrequency
Athens Tower126.300

NOTICE

Unauthorized use prohibited. See LiveATC.net Terms of Service


Airport/ARTCC Code
Frequency Search
(e.g., 124.400, 128.75)
Site-wide search
 


Browse Feeds
Top 50 Feeds
HF Oceanic Feeds
Coverage Map
Bad Weather Areas

LiveATC FAQ
Offer LiveATC feed
Contact LiveATC.net
Press Inquiries

LiveATC on iPhone
LiveATC on Android

Windows Phone
Windows 8/10

LiveATC Mobile
(Mobile browser)

ATC Audio Archives
Interesting Recordings

LiveATC Forums


Home Page
About LiveATC.net
Make a Donation
Terms of Use
Privacy Policy

Canadian Air Freqs

AIRMETs/SIGMETs

FAA Airport Status
NAS Status
Arrival Demand


Server Software By:
Icecast.org
Liquidsoap